When you browse on this site, cookies collect data to enhance your experience and personalize the content and advertising you see.
Visit our Privacy Policy to learn more. By continuing to use the site, you agree to this use of cookies and data.
  • In Hungary
  • List of Countries
  • For 7 days
  • Water Temperature
  • Satellite Maps
  • Weather Map
  • News
  • Weather Widgets
  • user-avatar
    Login

    Hourly Weather Semeykino

    Today, 17 July, Wednesday

    Time Temperature Precipitation Wind Pressure Humidity
    00:00 +17°C° 0.2 mm 3 mps 736 mmHg 96%
    01:00 +17°C° 0.1 mm 3 mps 736 mmHg 96%
    02:00 +17°C° 0.1 mm 4 mps 736 mmHg 96%
    03:00 +15°C° 0 mm 4 mps 737 mmHg 95%
    04:00 +17°C° 0 mm 4 mps 737 mmHg 94%
    05:00 +17°C° 0 mm 3 mps 737 mmHg 94%
    06:00 +17°C° 0 mm 3 mps 737 mmHg 93%
    07:00 +18°C° 0 mm 3 mps 737 mmHg 86%
    08:00 +20°C° 0 mm 3 mps 737 mmHg 79%
    09:00 +21°C° 0 mm 3 mps 737 mmHg 72%
    10:00 +22°C° 0 mm 3 mps 738 mmHg 66%
    11:00 +25°C° 0 mm 3 mps 738 mmHg 60%
    12:00 +26°C° 0 mm 4 mps 738 mmHg 53%
    13:00 +26°C° 0 mm 4 mps 738 mmHg 52%
    14:00 +27°C° 0 mm 4 mps 738 mmHg 51%
    15:00 +27°C° 0 mm 4 mps 737 mmHg 50%
    16:00 +26°C° 0 mm 4 mps 738 mmHg 52%
    17:00 +26°C° 0 mm 3 mps 738 mmHg 54%
    18:00 +26°C° 0 mm 3 mps 738 mmHg 56%
    19:00 +24°C° 0 mm 2 mps 738 mmHg 60%
    20:00 +23°C° 0 mm 2 mps 738 mmHg 64%
    21:00 +21°C° 0 mm 1 mps 738 mmHg 69%
    22:00 +21°C° 0 mm 1 mps 738 mmHg 69%
    23:00 +21°C° 0 mm 1 mps 738 mmHg 70%

    Tomorrow, 18 July, Thursday

    Time Temperature Precipitation Wind Pressure Humidity
    00:00 +20°C° 0 mm 1 mps 738 mmHg 70%
    01:00 +20°C° 0 mm 1 mps 738 mmHg 71%
    02:00 +19°C° 0 mm 1 mps 738 mmHg 72%
    03:00 +19°C° 0 mm 1 mps 738 mmHg 73%
    04:00 +17°C° 0 mm 0 mps 739 mmHg 73%
    05:00 +18°C° 0 mm 0 mps 739 mmHg 73%
    06:00 +18°C° 0 mm 0 mps 739 mmHg 73%
    07:00 +20°C° 0 mm 0 mps 739 mmHg 66%
    08:00 +23°C° 0 mm 1 mps 739 mmHg 59%
    09:00 +25°C° 0 mm 1 mps 740 mmHg 52%
    10:00 +26°C° 0 mm 1 mps 740 mmHg 47%
    11:00 +25°C° 0 mm 0 mps 740 mmHg 42%
    12:00 +27°C° 0 mm 0 mps 740 mmHg 37%
    13:00 +29°C° 0 mm 1 mps 740 mmHg 37%
    14:00 +29°C° 0 mm 1 mps 740 mmHg 36%
    15:00 +29°C° 0 mm 1 mps 740 mmHg 35%
    16:00 +28°C° 0 mm 1 mps 740 mmHg 38%
    17:00 +28°C° 0 mm 1 mps 740 mmHg 41%
    18:00 +28°C° 0 mm 1 mps 740 mmHg 44%
    19:00 +26°C° 0 mm 1 mps 740 mmHg 47%
    20:00 +25°C° 0 mm 1 mps 740 mmHg 49%
    21:00 +24°C° 0 mm 1 mps 740 mmHg 51%
    22:00 +23°C° 0 mm 1 mps 741 mmHg 54%
    23:00 +22°C° 0 mm 1 mps 741 mmHg 58%

    Day after tomorrow, 19 July, Friday

    Time Temperature Precipitation Wind Pressure Humidity
    00:00 +21°C° 0 mm 1 mps 741 mmHg 61%
    01:00 +21°C° 0 mm 1 mps 741 mmHg 63%
    02:00 +20°C° 0 mm 1 mps 741 mmHg 65%
    03:00 +19°C° 0 mm 2 mps 741 mmHg 67%
    04:00 +19°C° 0 mm 2 mps 742 mmHg 69%
    05:00 +18°C° 0 mm 2 mps 742 mmHg 71%
    06:00 +18°C° 0 mm 3 mps 742 mmHg 72%
    07:00 +20°C° 0 mm 3 mps 742 mmHg 66%
    08:00 +22°C° 0 mm 3 mps 743 mmHg 60%
    09:00 +25°C° 0 mm 3 mps 743 mmHg 53%
    10:00 +26°C° 0 mm 3 mps 743 mmHg 49%
    11:00 +27°C° 0 mm 3 mps 743 mmHg 44%
    12:00 +28°C° 0 mm 3 mps 743 mmHg 40%
    13:00 +28°C° 0 mm 3 mps 743 mmHg 38%
    14:00 +28°C° 0 mm 3 mps 743 mmHg 36%
    15:00 +29°C° 0 mm 3 mps 743 mmHg 34%
    16:00 +28°C° 0 mm 3 mps 743 mmHg 36%
    17:00 +28°C° 0 mm 2 mps 743 mmHg 38%
    18:00 +28°C° 0 mm 2 mps 743 mmHg 39%
    19:00 +26°C° 0 mm 2 mps 743 mmHg 44%
    20:00 +24°C° 0 mm 1 mps 744 mmHg 49%
    21:00 +23°C° 0 mm 1 mps 744 mmHg 53%
    22:00 +22°C° 0 mm 1 mps 744 mmHg 56%
    23:00 +20°C° 0 mm 2 mps 744 mmHg 59%

    20 July, Saturday

    Time Temperature Precipitation Wind Pressure Humidity
    00:00 +19°C° 0 mm 2 mps 745 mmHg 62%
    01:00 +19°C° 0 mm 2 mps 745 mmHg 66%
    02:00 +18°C° 0 mm 2 mps 745 mmHg 69%
    03:00 +18°C° 0 mm 2 mps 745 mmHg 73%
    04:00 +19°C° 0 mm 1 mps 745 mmHg 74%
    05:00 +19°C° 0 mm 1 mps 745 mmHg 75%
    06:00 +20°C° 0 mm 1 mps 745 mmHg 76%
    07:00 +21°C° 0 mm 1 mps 746 mmHg 70%
    08:00 +23°C° 0 mm 2 mps 746 mmHg 63%
    09:00 +25°C° 0 mm 2 mps 746 mmHg 57%
    10:00 +26°C° 0 mm 2 mps 746 mmHg 51%
    11:00 +27°C° 0 mm 2 mps 746 mmHg 45%
    12:00 +28°C° 0 mm 2 mps 746 mmHg 38%
    13:00 +28°C° 0 mm 2 mps 746 mmHg 36%
    14:00 +29°C° 0 mm 2 mps 746 mmHg 34%
    15:00 +30°C° 0 mm 2 mps 746 mmHg 32%
    16:00 +29°C° 0 mm 1 mps 746 mmHg 33%
    17:00 +29°C° 0 mm 1 mps 746 mmHg 34%
    18:00 +29°C° 0 mm 1 mps 746 mmHg 35%
    19:00 +27°C° 0 mm 1 mps 746 mmHg 39%
    20:00 +25°C° 0 mm 1 mps 746 mmHg 43%
    21:00 +23°C° 0 mm 1 mps 746 mmHg 47%
    22:00 +23°C° 0 mm 1 mps 746 mmHg 49%
    23:00 +22°C° 0 mm 1 mps 746 mmHg 50%

    21 July, Sunday

    Time Temperature Precipitation Wind Pressure Humidity
    00:00 +21°C° 0 mm 1 mps 746 mmHg 52%
    01:00 +21°C° 0 mm 1 mps 746 mmHg 53%
    02:00 +21°C° 0 mm 1 mps 746 mmHg 54%
    03:00 +20°C° 0 mm 1 mps 746 mmHg 54%
    04:00 +20°C° 0 mm 1 mps 746 mmHg 56%
    05:00 +21°C° 0 mm 1 mps 746 mmHg 58%
    06:00 +21°C° 0 mm 1 mps 746 mmHg 59%
    07:00 +23°C° 0 mm 1 mps 746 mmHg 54%
    08:00 +25°C° 0 mm 1 mps 746 mmHg 49%
    09:00 +26°C° 0 mm 1 mps 746 mmHg 44%
    10:00 +28°C° 0 mm 1 mps 746 mmHg 41%
    11:00 +29°C° 0 mm 2 mps 746 mmHg 37%
    12:00 +30°C° 0 mm 2 mps 746 mmHg 33%
    13:00 +30°C° 0 mm 2 mps 746 mmHg 32%
    14:00 +31°C° 0 mm 1 mps 746 mmHg 31%
    15:00 +31°C° 0 mm 1 mps 746 mmHg 31%
    16:00 +30°C° 0 mm 1 mps 746 mmHg 36%
    17:00 +29°C° 0 mm 1 mps 745 mmHg 41%
    18:00 +28°C° 0 mm 1 mps 745 mmHg 46%
    19:00 +27°C° 0 mm 2 mps 745 mmHg 53%
    20:00 +25°C° 0 mm 2 mps 746 mmHg 60%
    21:00 +23°C° 0 mm 2 mps 746 mmHg 67%
    22:00 +21°C° 0 mm 2 mps 746 mmHg 70%
    23:00 +21°C° 0 mm 2 mps 746 mmHg 73%

    22 July, Monday

    Time Temperature Precipitation Wind Pressure Humidity
    00:00 +20°C° 0 mm 2 mps 746 mmHg 76%
    01:00 +20°C° 0 mm 2 mps 745 mmHg 76%
    02:00 +19°C° 0 mm 2 mps 745 mmHg 77%
    03:00 +19°C° 0 mm 2 mps 745 mmHg 78%
    04:00 +20°C° 0 mm 1 mps 745 mmHg 77%
    05:00 +21°C° 0 mm 1 mps 745 mmHg 77%
    06:00 +21°C° 0 mm 1 mps 745 mmHg 77%
    07:00 +23°C° 0 mm 1 mps 745 mmHg 70%
    08:00 +25°C° 0 mm 1 mps 745 mmHg 63%
    09:00 +27°C° 0 mm 1 mps 745 mmHg 55%
    10:00 +28°C° 0 mm 2 mps 745 mmHg 51%
    11:00 +29°C° 0 mm 2 mps 745 mmHg 47%
    12:00 +30°C° 0 mm 2 mps 745 mmHg 43%
    13:00 +30°C° 0 mm 2 mps 745 mmHg 43%
    14:00 +30°C° 0 mm 2 mps 744 mmHg 44%
    15:00 +30°C° 0 mm 2 mps 744 mmHg 44%
    16:00 +29°C° 0 mm 2 mps 744 mmHg 47%
    17:00 +29°C° 0 mm 2 mps 744 mmHg 49%
    18:00 +28°C° 0 mm 3 mps 744 mmHg 52%
    19:00 +26°C° 0 mm 2 mps 744 mmHg 58%
    20:00 +25°C° 0 mm 1 mps 744 mmHg 64%
    21:00 +23°C° 0 mm 1 mps 744 mmHg 70%
    22:00 +23°C° 0 mm 1 mps 743 mmHg 71%
    23:00 +22°C° 0 mm 1 mps 743 mmHg 72%
    Show more